User: anonymous   Login
Location: Holmes Observatory
(37.1039°N, 122.0513°W)
Time: 10:29:06
(UTC-08:00)
Language:

Cosmos 921 Rocket - Orbit

View from above orbital plane
View from above orbital plane
View from above satellite
View from above satellite

Ground track
Ground track

The orbit data is extracted from the following two-line orbital elements,

1 10096U 77055B   18019.92181901 +.00000038 +00000-0 +62555-5 0  9999
2 10096 075.8357 334.6478 0042364 013.5566 346.6752 14.88602079194296
Epoch (UTC): 19 January 2018 22:07:25
Eccentricity: 0.0042364
inclination: 75.8357°
perigee height: 573 km
apogee height: 632 km
right ascension of ascending node: 334.6478°
argument of perigee: 13.5566°
revolutions per day: 14.88602079
mean anomaly at epoch: 346.6752°
orbit number at epoch: 19429

The dashed part of the orbit path shows where the satellite is in the earth's shadow,  

DLR